Regional Weather Roundup
Issued by NWS

Home | Current Version | Previous Version | Graphics & Text | Print | Product List | Glossary On
Versions: 1 2 3 4 5 6 7 8 9 10 11 12 13 14 15 16 17 18 19 20 21 22 23 24 25 26 27 28 29 30 31 32 33 34 35 36 37 38 39 40 41 42 43 44 45 46 47 48 49 50
000
ASUS45 KCYS 170510
RWRWY

WYOMING REGIONAL WEATHER ROUNDUP
NATIONAL WEATHER SERVICE CHEYENNE WY
1000 PM MST SAT DEC 16 2017

NOTE:  "FAIR" INDICATES FEW OR NO CLOUDS BELOW 12,000 FEET
WITH NO SIGNIFICANT WEATHER AND/OR OBSTRUCTIONS TO VISIBILITY.

WYZ001-170600-
YELLOWSTONE NATIONAL PARK

CITY           SKY/WX    TMP DP  RH WIND       PRES   REMARKS
LK YELLOWSTONE   N/A      5   3  91 NW3       29.97R
W YELLOWSTONE  NOT AVBL

$$
WYZ002>013-054>058-071-098>099-170600-
NORTHERN WYOMING

CITY           SKY/WX    TMP DP  RH WIND       PRES   REMARKS
JACKSON        FAIR      17  13  84 CALM      29.97R
CODY           FLURRIES  23  20  88 NW5       30.01S WCI  17
GREYBULL       LGT SNOW  28  26  92 W10       30.00R FOG     WCI  19
WORLAND        LGT SNOW  27  27 100 W5        30.02R FOG     WCI  22
SHERIDAN       LGT SNOW  28  28 100 CALM      30.04S FOG
BUFFALO        LGT SNOW  27  22  81 CALM      30.02R
GILLETTE       LGT SNOW  27  25  92 N6        30.02R FOG     WCI  20
HULETT         LGT SNOW  30  27  86 E3        30.03S
NEWCASTLE      LGT SNOW  28  28 100 CALM      30.02S

$$
WYZ014>020-022>026-101>103-170600-
CENTRAL WYOMING

CITY           SKY/WX    TMP DP  RH WIND       PRES   REMARKS
BIG PINEY      CLOUDY    24  18  77 N9        29.89R WCI  14
PINEDALE       LGT SNOW  25  23  93 NW9       29.89R WCI  15
DUBOIS         LGT SNOW  23  21  93 SE9       29.90R WCI  13
LANDER         LGT SNOW  25  24  96 CALM      29.97R VSB 1
RIVERTON       LGT SNOW  26  25  96 N5        29.97R VSB 3/4 WCI  20
CASPER         LGT SNOW  25  22  88 N8        29.96R FOG     WCI  16
DOUGLAS        CLOUDY    30  26  85 SE10      29.96S WCI  21

$$
WYZ021-027>030-104>119-170600-
SOUTHERN WYOMING

CITY           SKY/WX    TMP DP  RH WIND       PRES   REMARKS
EVANSTON       CLOUDY    22  20  92 N7        29.95R WCI  13
FORT BRIDGER   CLOUDY    25  24  96 W12       29.95R WCI  14
ROCK SPRINGS   FLURRIES  27  23  85 E7        29.90R WCI  19
DIXON          FAIR      22  15  75 CALM      29.88R
RAWLINS        FAIR      25  21  85 NE15      29.86R WCI  13
SARATOGA       FAIR      19  19 100 CALM      29.85R
LARAMIE        FAIR      24  21  88 SE16G25   29.85R WCI  11
CHEYENNE       FOG       26  26 100 E8        29.93R VSB 1/4 WCI  18
TORRINGTON     CLOUDY    31  25  78 E10       29.99S WCI  22
PINE BLUFFS    CLOUDY    30  28  93 E9        29.95S WCI  22

$$



USA.gov is the U.S. government's official web portal to all federal, state and local government web resources and services.